Location: ????????
(55.5652°N, 39.1232°E)
Time: 05:21:36
(UTC+00:00)

Daily predictions for brighter satellites

Satellite Brightness Start Highest point End
(mag) Time Altitude Azimuth Time Altitude Azimuth Time Altitude Azimuth
Cosmos 2237 Rocket 4.4 00:13:51 18° ESE 00:14:27 18° E 00:18:08 10° ENE
Cosmos 2369 Rocket 4.1 00:17:55 26° NE 00:17:55 26° NE 00:22:07 10° E
ADEOS Rocket 4.0 00:15:24 10° NNE 00:21:56 51° E 00:21:56 51° E
ADEOS II 4.3 00:17:37 10° NNE 00:19:01 19° NNE 00:19:01 19° NNE
Cosmos 2360 Rocket 4.0 00:29:09 25° NNE 00:29:09 25° NNE 00:31:26 10° NNE
Cosmos 2322 Rocket 4.0 00:34:12 25° NNE 00:34:12 25° NNE 00:36:35 10° NNE
Cosmos 2333 Rocket 4.0 00:35:28 25° NNE 00:35:28 25° NNE 00:37:58 10° NNE
SJ 16-02 4.2 00:38:25 12° ESE 00:38:25 12° ESE 00:38:52 10° ESE
USA 234 3.8 00:30:23 10° ESE 00:35:06 51° ESE 00:35:06 51° ESE
CZ-2D R/B 4.3 00:35:29 10° NNE 00:36:47 18° NNE 00:36:47 18° NNE
ACS3 Solar Sail 2.6 00:35:29 10° NNE 00:39:55 47° NE 00:39:55 47° NE
SL-16 R/B 4.0 00:44:51 23° NNE 00:44:51 23° NNE 00:47:15 10° NNE
COSMOS 2455 4.0 00:46:06 36° NNE 00:46:06 36° NNE 00:49:48 10° NE
Resurs 1-4 Rocket 4.2 00:47:52 10° NNE 00:49:16 18° N 00:49:16 18° N
Cosmos 1656 Rocket 4.5 00:57:23 49° ENE 00:57:23 49° ENE 01:02:26 10° ESE
Cosmos 1725 Rocket 4.4 00:52:21 10° N 00:58:40 62° ENE 01:04:55 10° SSE
Cosmos 2219 Rocket 3.4 01:03:00 35° NNE 01:03:00 35° NNE 01:06:21 10° NNE
NOSS 3-1 (C) 3.8 01:03:05 51° ENE 01:03:05 51° ENE 01:07:49 10° NE
Cosmos 1727 Rocket 4.3 01:07:36 61° NNE 01:07:36 61° NNE 01:12:41 10° NNE
Lacrosse 4 Rocket 3.9 01:11:04 16° NE 01:11:04 16° NE 01:12:49 10° ENE
NOSS 3-2 (C) 4.3 01:11:41 43° N 01:12:22 44° N 01:19:36 10° ENE
Lacrosse 5 rocket 4.1 01:16:10 13° E 01:16:10 13° E 01:16:39 10° E
H-2A R/B 3.6 01:14:31 10° NNE 01:16:39 26° NNE 01:16:39 26° NNE
Cosmos 1802 Rocket 4.2 01:13:39 10° NNW 01:21:19 60° SSE 01:26:20 10° S
NOSS 0 Rocket 4.2 01:20:16 59° SSE 01:21:01 64° ESE 01:27:08 10° NE
Cosmos 1000 Rocket 4.4 01:28:39 81° SSW 01:29:00 87° W 01:35:23 10° N
NOSS 3-2 (A) 4.2 01:31:49 43° NNW 01:33:52 57° NNE 01:41:47 10° ESE
COSMOS 2428 2.7 01:39:07 70° NNW 01:39:07 70° NNW 01:44:24 10° NNE
Cosmos 1980 Rocket 4.1 01:38:37 17° NNW 01:39:11 17° N 01:42:50 10° NE
Meteor 2-5 Rocket 3.8 01:37:02 40° S 01:39:16 77° E 01:45:03 10° NNE
Cosmos 2322 3.8 01:40:26 61° NNW 01:40:26 61° NNW 01:45:28 10° NNE
USA 267 4.3 01:34:18 10° ENE 01:40:23 40° SE 01:44:05 22° SSW
CZ-2C R/B 2.7 01:35:55 10° NNE 01:40:59 70° ESE 01:42:21 48° S
Cosmos 1980 3.9 01:40:45 49° S 01:42:10 68° ESE 01:47:49 10° NE
Cosmos 2123 Rocket 3.9 01:39:50 31° S 01:43:02 86° E 01:49:15 10° NNE
Cosmos 2016 Rocket 3.9 01:37:26 10° NNW 01:43:50 78° W 01:50:10 10° S
Cosmos 1939 Rocket 3.8 01:46:50 10° NNE 01:50:33 44° E 01:51:19 39° SE
NOSS 3-1 (A) 3.2 01:50:03 60° S 01:50:52 71° SE 01:56:57 10° NE
Meteor 2-21 4.3 01:50:58 66° W 01:51:12 67° WNW 01:57:15 10° N
Cosmos 2084 4.2 01:52:25 43° NE 01:52:25 43° NE 01:56:01 10° E
Cosmos 1190 Rocket 4.3 01:54:11 51° S 01:54:11 51° S 01:58:12 10° SSE
Cosmos 676 Rocket 3.9 01:54:26 62° NNW 01:55:22 88° ENE 02:00:35 10° SSE
Cosmos 2297 4.0 01:54:05 33° NNW 01:56:36 66° NE 02:02:12 10° SE
CENTAUR R/B 3.2 01:52:52 37° NW 01:56:39 87° NE 02:05:55 10° SE
ARGOS 3.0 01:51:59 10° NNE 01:57:27 82° WNW 01:58:54 51° SSW
Cosmos 2237 Rocket 2.2 01:55:42 43° SSW 01:57:39 79° ESE 02:03:19 10° NE
ADEOS II 3.7 01:57:38 10° N 01:59:50 21° NNW 01:59:50 21° NNW
Cosmos 2369 Rocket 2.3 01:59:43 33° NNW 02:02:21 72° NE 02:08:04 10° SE
USA 238 DEB 4.4 02:03:31 34° NW 02:05:50 45° N 02:12:58 10° ENE
USA 238 4.4 02:03:37 34° NW 02:05:56 45° N 02:13:04 10° ENE
Cosmos 1954 Rocket 3.9 02:07:31 62° WSW 02:07:31 62° WSW 02:12:28 10° S
ADEOS Rocket 3.5 02:01:08 10° N 02:07:29 49° WNW 02:08:51 44° W
Cosmos 2056 Rocket 4.4 02:03:51 10° S 02:09:02 49° ESE 02:14:12 10° NE
Cosmos 2360 Rocket 3.5 02:10:54 24° NNW 02:10:54 24° NNW 02:15:24 10° NNE
Meteor 2-16 Rocket 4.3 02:05:47 11° SSW 02:11:44 74° WNW 02:17:56 10° N
SJ 16-02 2.0 02:15:02 39° SSW 02:15:02 39° SSW 02:17:53 10° S
IRS-1D 4.3 02:11:20 10° NNE 02:16:10 50° E 02:20:57 10° S
Cosmos 2322 Rocket 3.6 02:15:59 22° NNW 02:16:14 23° NNW 02:20:41 10° NNE
SKYMED 2 3.5 02:13:38 10° SSE 02:17:59 83° ENE 02:21:03 19° NNW
Cosmos 2333 Rocket 3.7 02:17:29 22° NNW 02:18:01 22° NNW 02:22:26 10° NNE
CZ-2D R/B 3.9 02:16:22 10° N 02:18:02 16° NNW 02:18:02 16° NNW
USA 234 3.5 02:14:07 10° SE 02:20:26 48° SW 02:22:27 37° W
NOSS 2-2 (E) 3.7 02:23:27 43° N 02:24:01 48° NNE 02:28:11 10° ESE
ACS3 Solar Sail 2.3 02:18:48 10° N 02:24:02 35° WNW 02:24:02 35° WNW
SeaSat 1 4.1 02:21:03 10° NNE 02:24:16 19° NNW 02:24:16 19° NNW
COSMO-SKYMED 1 2.6 02:20:53 10° SSE 02:25:00 72° ENE 02:28:38 13° N
USA 59 Rocket 0.9 02:28:26 24° NNE 02:28:26 24° NNE 02:30:03 10° NE
SL-16 R/B 3.8 02:26:41 18° NNW 02:27:46 19° NNW 02:31:41 10° NNE
Cosmos 1371 Rocket 4.4 02:23:09 10° SSW 02:28:24 64° ESE 02:33:42 10° NNE
Cosmos 968 Rocket 3.5 02:25:09 22° NNW 02:28:38 86° ENE 02:33:54 10° SSE
Cosmos 1741 Rocket 4.2 02:26:44 17° NNW 02:30:55 72° ENE 02:36:14 10° SE
COSMOS 2455 3.9 02:29:13 26° NW 02:30:58 29° NNW 02:36:13 10° NE
Resurs 1-4 Rocket 4.0 02:28:48 10° N 02:30:18 14° NNW 02:30:18 14° NNW
Cosmos 371 Rocket 3.5 02:32:57 45° W 02:33:21 46° WSW 02:37:58 10° S
Cosmos 2061 Rocket 4.0 02:29:23 10° NNW 02:35:23 53° W 02:41:22 10° SSW
Cosmos 1891 Rocket 4.4 02:29:32 10° NNW 02:35:57 86° W 02:42:13 10° S
CZ-4 R/B 4.2 02:33:18 10° NNE 02:38:12 68° ESE 02:42:57 10° S
Aureole 3 Rocket 3.6 02:35:07 10° NNW 02:39:50 75° W 02:46:28 10° S
Cosmos 2292 Rocket 4.4 02:35:23 13° SSW 02:40:10 56° WNW 02:46:47 10° N
Cosmos 1656 Rocket 4.0 02:38:46 34° WNW 02:40:26 43° WSW 02:45:46 10° S
NOAA 12 4.5 02:35:48 10° NNE 02:41:08 68° ESE 02:46:26 10° S
Cosmos 304 Rocket 4.2 02:41:42 38° W 02:41:54 38° WSW 02:46:19 10° S
Gbstr 26 Del rocket 3.8 02:39:58 34° WSW 02:42:07 59° S 02:48:08 10° ESE
Meteor 1-24 Rocket 4.1 02:41:06 33° W 02:42:34 39° WNW 02:47:40 10° N
Cosmos 2219 Rocket 3.5 02:44:42 22° NW 02:45:48 23° NNW 02:50:19 10° NNE
Cosmos 2233 Rocket 4.3 02:40:23 10° NNW 02:46:16 42° W 02:52:03 10° SSW
Cosmos 1400 Rocket 2.5 02:44:17 19° NNW 02:46:53 89° SW 02:50:33 10° SSE
Lacrosse 4 Rocket 2.1 02:46:35 22° NNW 02:48:51 45° NE 02:52:39 10° ESE
Cosmos 2151 Rocket 3.6 02:44:49 10° NNW 02:49:21 86° ENE 02:53:50 10° SSE
Cosmos 1484 Rocket 4.3 02:46:47 10° NNE 02:50:05 35° E 02:53:20 10° SSE
Lacrosse 5 rocket 0.8 02:49:50 53° WSW 02:50:22 64° SSW 02:53:39 10° ESE
In-Cosmos 22 Rocket 4.3 02:45:31 10° S 02:51:21 84° E 02:57:10 10° NNE
USA 306 3.5 02:50:32 25° SSW 02:51:59 39° SSE 02:55:37 10° E
NOSS 3-1 (C) 3.7 02:50:25 30° WNW 02:52:50 48° NNW 02:59:19 10° ENE
NOSS 2-2 (C) 3.3 02:53:25 39° WNW 02:54:42 68° SW 02:59:27 10° SE
Sich 1 Rocket 3.9 02:51:50 10° N 02:56:24 70° ENE 03:00:53 10° SSE
Cosmos 1447 Rocket 4.4 02:50:19 10° SSW 02:56:35 74° WNW 03:02:58 10° N
H-2A R/B 3.5 02:54:48 10° N 02:57:08 17° NW 02:57:08 17° NW
Cosmos 1464 Rocket 3.9 02:52:04 10° NNW 02:58:16 90° NNE 03:04:25 10° S
H-2A R/B 3.9 02:55:34 10° N 02:58:58 33° WNW 02:58:58 33° WNW
PAYLOAD A 4.5 02:55:44 10° N 03:00:46 41° WNW 03:05:39 10° SW
SL-16 R/B 2.4 02:55:16 10° SSW 03:00:56 74° ESE 03:06:38 10° NE
SWARM C 4.4 02:58:30 10° S 03:01:49 80° W 03:05:10 10° N
SWARM A 4.1 02:58:36 10° S 03:01:56 88° E 03:05:16 10° N
Cosmos 332 Rocket 3.7 02:58:13 15° NNW 03:02:11 76° WSW 03:06:56 10° SSE
Cosmos 1624 Rocket 3.9 02:57:03 10° SSW 03:02:14 78° WNW 03:07:27 10° NNE
Cosmos 1420 Rocket 4.1 02:57:42 13° SW 03:02:14 54° NW 03:07:29 10° NNE
NOSS 3-2 (C) 4.1 02:59:05 19° NW 03:04:14 69° NNE 03:12:29 10° ESE
SL-08 RB Rocket 4.4 03:00:30 10° N 03:04:32 32° WNW 03:06:14 24° W
Helios 1A Rocket 3.0 03:02:03 10° SSW 03:05:10 34° W 03:05:20 34° W
Cosmos 1378 Rocket 3.4 03:00:57 10° S 03:05:14 88° ESE 03:09:34 10° NNE
Cosmos 2242 Rocket 3.5 03:02:33 10° SSW 03:06:55 63° WNW 03:11:21 10° N
Okean 1 Rocket 3.0 03:03:05 10° N 03:07:28 85° E 03:11:46 10° SSE
NOSS 0 Rocket 4.4 03:04:17 22° W 03:07:49 42° NW 03:13:40 10° NNE
Cosmos 2346 Rocket 4.4 03:03:14 10° SSW 03:09:16 60° WNW 03:15:18 10° N
Cosmos 2034 Rocket 4.2 03:03:16 10° N 03:09:40 78° ENE 03:16:02 10° SSE
Cosmos 1812 4.0 03:14:35 15° SW 03:14:35 15° SW 03:15:23 10° SSW
Meteor 2-1 Rocket 4.3 03:07:14 10° NNW 03:13:13 88° ENE 03:19:03 10° SSE
NOSS 2-2 (D) 3.3 03:14:49 25° WNW 03:16:53 75° SW 03:21:33 10° SE
NOSS 2-1 (E) 4.0 03:16:18 23° NW 03:16:55 25° NNW 03:19:32 10° NE
Cosmos 1452 Rocket 4.4 03:13:00 10° S 03:18:04 52° ESE 03:23:09 10° NE
CZ-2C R/B 3.4 03:14:30 10° N 03:18:40 27° NW 03:21:33 16° W
Cosmos 1850 Rocket 4.1 03:14:12 12° NW 03:18:49 53° WSW 03:23:49 10° S
PKM 4.3 03:19:13 19° WNW 03:22:55 56° SSW 03:25:46 10° SE
COSMOS 2428 3.8 03:21:07 19° WNW 03:23:50 26° NNW 03:28:37 10° NNE
USA 267 3.4 03:17:24 10° ENE 03:23:59 80° SSE 03:30:33 10° WSW
Cosmos 1939 Rocket 3.8 03:21:09 10° N 03:24:20 25° WNW 03:26:12 17° WSW
NOSS 3-2 (A) 4.0 03:19:10 15° NW 03:25:07 72° SW 03:33:37 10° SE
Cosmos 1980 Rocket 4.0 03:20:58 10° NNW 03:25:19 22° NNE 03:29:39 10° ENE
Cosmos 1980 4.3 03:22:38 16° W 03:26:39 36° NW 03:31:54 10° NNE
USA 229 DEB 4.0 03:20:52 10° SSW 03:26:51 66° SE 03:33:40 10° NE
USA 229 4.0 03:21:05 10° SSW 03:27:04 66° SE 03:33:52 10° NE
IGS 5A 3.9 03:23:55 10° NNE 03:27:55 63° E 03:31:54 10° S
Cosmos 2084 3.5 03:28:09 19° WNW 03:30:54 55° SW 03:34:50 10° SSE
Cosmos 1331 Rocket 4.2 03:27:13 10° SSW 03:32:28 79° ESE 03:37:42 10° NNE
Meteor 1-11 4.3 03:29:16 10° SSW 03:35:08 87° WNW 03:41:01 10° NNE
ARGOS 4.4 03:33:02 10° N 03:36:59 21° NW 03:40:21 12° W
Cosmos 1356 Rocket 4.2 03:33:13 10° N 03:37:12 51° ENE 03:41:11 10° SSE
Cosmos 2297 4.5 03:36:01 12° NW 03:40:25 31° WSW 03:45:16 10° SSW
CZ-2D R/B 4.5 03:37:32 10° NNE 03:40:32 37° E 03:43:31 10° SSE
CBERS-1 4.2 03:35:44 10° NNE 03:40:54 80° ESE 03:46:01 10° SSW
NOSS 3-1 (A) 3.7 03:37:27 14° W 03:41:59 49° NNW 03:48:31 10° ENE
SMAP 4.0 03:37:31 10° NNE 03:42:07 54° E 03:46:41 10° S
Cosmos 2237 Rocket 2.9 03:37:34 12° W 03:42:16 33° NW 03:47:21 10° NNE
Cosmos 1441 Rocket 4.0 03:40:21 10° S 03:43:35 48° E 03:46:49 10° NNE
Okean 2 Rocket 3.5 03:40:44 10° NNW 03:44:48 39° W 03:48:51 10° SSW
Cosmos 2369 Rocket 3.1 03:41:31 11° NW 03:45:56 28° WSW 03:50:42 10° SSW
CENTAUR R/B 3.8 03:40:00 12° WNW 03:47:06 41° WSW 03:55:32 10° S
ATLAS 3B R/B 3.1 03:40:46 10° SW 03:48:26 84° SE 03:56:24 10° NE
Cosmos 2279 Rocket 4.5 03:44:00 10° N 03:50:13 65° ENE 03:56:24 10° SSE
NOSS 2-1 (D) 4.3 03:49:19 13° NW 03:51:06 20° N 03:53:30 10° NE
Cosmos 2056 Rocket 4.0 03:46:10 10° WSW 03:51:15 40° NW 03:56:19 10° NNE
Cosmos 1943 3.6 03:46:21 10° SSW 03:51:55 70° ESE 03:57:31 10° NE
NOSS 2-1 (C) 4.3 03:52:10 12° NW 03:54:04 20° N 03:56:26 10° NE
IRS-1D 4.1 03:50:45 10° N 03:55:10 33° WNW 03:59:32 10° WSW
Orbus 7S? 2.7 03:51:49 10° WSW 03:55:43 85° NNW 03:58:21 10° ENE
Cosmos 2360 Rocket 4.0 03:53:16 10° NW 03:56:54 17° N 04:00:31 10° NE
USA 238 DEB 4.2 03:50:57 10° NW 03:57:55 63° NNE 04:05:37 10° ESE
USA 238 4.2 03:51:03 10° NW 03:58:01 62° NNE 04:05:44 10° ESE
Cosmos 1315 Rocket 2.8 03:54:21 10° NNW 03:58:13 80° ENE 04:02:04 10° SSE
COSMO-SKYMED 1 4.0 03:58:03 10° SW 04:00:48 17° W 04:03:34 10° NW
Iridium 45 4.4 03:57:47 10° NNW 04:00:55 51° W 04:04:00 10° SSW
Cosmos 2228 3.2 03:57:06 10° N 04:01:22 78° ENE 04:05:37 10° SSE
Cosmos 292 Rocket 4.1 03:57:28 10° NW 04:02:06 48° WSW 04:06:40 10° S
Cosmos 2322 Rocket 4.0 03:58:42 10° NW 04:02:24 17° N 04:06:07 10° NE
NOSS 2-3 (C) 4.3 03:58:43 10° NW 04:03:12 63° NNE 04:09:18 10° ESE
Cosmos 2333 Rocket 4.0 04:00:32 10° NW 04:04:29 18° N 04:08:26 10° NE
Cosmos 1544 Rocket 4.4 04:00:14 10° N 04:04:35 54° ENE 04:08:55 10° SSE
ACS3 Solar Sail 3.5 04:04:04 10° NNW 04:05:31 11° NW 04:06:59 10° NW
Cosmos 1025 Rocket 3.3 04:06:13 10° SW 04:10:23 44° WNW 04:14:36 10° N
NOSS 2-3 (E) 4.2 04:06:07 10° NW 04:10:45 74° NE 04:16:57 10° ESE
Cosmos 1461 3.8 04:07:41 10° NW 04:11:25 37° NNE 04:15:05 10° E
NOSS 2-2 (E) 4.3 04:10:00 10° WNW 04:13:26 37° SW 04:17:57 10° SSE
MOS 1 Rocket 4.2 04:09:08 10° NNE 04:13:57 58° E 04:19:01 10° S
SL-16 R/B 4.0 04:10:06 10° NNW 04:14:04 19° NNE 04:18:03 10° ENE
Cosmos 1674 Rocket 4.3 04:11:21 10° SW 04:15:20 32° WNW 04:19:21 10° N
USA 59 Rocket 0.9 04:14:34 10° NW 04:16:51 20° N 04:19:17 10° NE
COSMOS 2455 4.0 04:13:16 10° NW 04:18:35 30° NNE 04:23:53 10° ENE
Cosmos 1697 Rocket 3.5 04:13:52 10° NNW 04:19:20 49° NE 04:24:46 10° ESE
USA 306 2.8 04:16:53 10° WSW 04:20:26 69° S 04:24:25 10° E
Tsikada Rocket 4.1 04:16:32 10° SSW 04:22:53 77° WNW 04:29:21 10° N
